Wind_Speed
50 49 47 49 47 45 46 46 47 48 46 43 42 41 39 38 38 38 33 31 33 31 31 30 23 26 22 26 25 22 18 24 24 23 19 14 12 16 17 15 15 14 10 14 15 13 16 13 7 11 22 32 36 33
46 52 50 48 48 46 46 47 47 48 46 44 42 41 40 39 39 39 34 32 35 35 22 29 32 23 28 24 24 25 24 18 20 17 22 13 14 12 16 17 17 15 19 10 15 10 15 13 25 25 31 34 33 30
47 48 49 49 50 50 49 48 48 48 46 45 43 42 42 40 39 39 35 35 33 38 29 25 20 32 29 26 23 25 24 23 22 20 19 18 17 16 16 21 19 18 19 21 22 26 29 30 28 36 33 32 25 28
45 45 46 48 50 50 51 51 50 49 48 46 44 43 42 42 40 38 39 36 37 36 39 28 31 27 25 32 33 27 24 23 24 20 24 26 21 19 18 20 19 20 24 27 33 27 25 31 29 29 33 28 27 27
44 46 48 49 49 49 51 51 50 49 48 46 44 42 42 41 40 39 38 37 39 37 16 38 31 25 32 26 23 28 30 30 30 30 29 29 29 31 35 32 26 23 18 24 30 25 29 31 30 28 28 24 27 25
36 39 45 49 48 49 48 49 51 49 48 47 45 44 42 40 38 42 43 41 40 41 39 11 17 34 28 25 29 33 33 32 33 33 33 34 34 30 26 32 27 26 31 31 34 28 28 26 22 25 28 25 25 19
35 37 40 44 48 47 49 48 49 50 49 46 45 45 42 39 42 47 47 45 42 42 41 33 20 29 20 32 31 27 30 34 36 35 37 39 41 40 49 52 38 29 40 43 39 26 22 18 25 29 29 25 20 14
40 39 37 42 47 46 48 45 45 48 50 46 43 41 39 37 39 44 46 39 41 41 38 33 13 26 29 31 29 31 36 37 38 38 40 39 39 43 54 38 32 35 33 31 25 22 22 25 33 34 30 23 16 14
41 43 41 43 44 45 49 45 43 44 49 47 43 40 39 44 48 45 45 38 33 42 31 34 31 24 28 34 33 30 30 36 32 37 44 42 48 44 40 32 35 33 30 25 23 24 29 37 39 35 27 21 14 16
38 45 44 43 44 47 48 46 45 45 47 44 45 47 52 50 47 45 40 39 33 33 44 37 29 25 26 29 31 29 30 26 19 33 36 45 57 54 49 47 39 41 43 41 44 43 42 45 40 30 24 18 17 16
38 44 45 43 45 48 50 47 45 49 49 55 56 54 42 54 46 46 31 41 36 37 32 48 46 36 27 33 34 29 19 13 14 20 26 33 42 41 31 29 29 27 29 38 35 38 40 38 33 25 19 18 17 17
40 45 47 43 43 49 48 50 48 51 53 58 60 52 39 46 33 36 32 42 16 20 43 49 49 45 35 31 27 30 21 13 11 15 14 25 31 22 14 13 16 23 28 25 23 26 26 29 26 22 19 19 17 15
43 45 50 45 44 47 50 54 53 51 57 57 56 45 48 41 23 28 38 22 40 15 41 53 46 46 39 34 28 17 15 17 21 15 23 30 29 26 23 16 14 13 19 21 21 22 26 26 23 21 19 18 16 13
45 46 53 46 46 48 51 50 55 55 55 43 37 31 26 34 27 39 32 54 32 46 33 38 44 38 32 37 17 15 16 14 11 18 24 35 30 24 23 21 20 15 17 20 23 23 24 22 21 19 19 18 12 13
47 50 51 48 47 46 48 54 57 54 69 33 35 24 42 29 40 35 31 43 47 34 44 39 40 29 36 18 15 12 10 11 18 28 32 14 16 13 15 14 15 17 19 22 21 22 22 20 20 19 20 14 13 11
52 48 47 49 47 45 50 57 57 62 47 34 24 17 38 35 31 39 35 31 43 30 38 40 23 22 21 18 16 22 16 16 29 29 15 14 11 10 3 11 13 13 17 18 19 20 21 20 20 20 16 13 11 10
51 55 51 50 48 48 50 60 59 51 33 30 26 28 21 29 35 38 30 30 40 43 38 34 23 19 17 24 22 23 38 31 34 31 27 23 24 24 22 21 14 14 16 17 21 22 22 23 20 16 15 11 9 9
49 49 52 52 53 50 55 61 38 27 19 36 30 23 28 30 28 31 34 32 35 41 40 36 29 29 26 27 35 33 21 19 18 18 17 18 15 15 18 17 15 15 14 17 20 21 23 19 17 17 13 10 9 11
45 50 49 49 53 57 54 49 31 32 17 44 37 26 20 32 36 35 31 34 39 43 48 33 24 35 36 35 33 26 18 16 18 18 19 18 18 18 16 17 15 16 13 19 20 22 21 19 19 15 11 9 10 12
42 43 47 52 57 51 29 19 34 35 22 39 35 29 32 34 34 37 41 48 49 51 37 33 36 28 29 32 31 22 22 18 14 12 14 17 20 20 11 16 17 15 18 24 25 23 21 18 14 12 10 10 12 13
48 55 58 60 50 30 24 20 28 36 31 34 36 37 36 35 35 38 40 46 48 48 37 34 36 35 29 24 25 23 17 16 15 17 17 19 18 20 19 18 18 18 22 23 22 20 17 16 14 11 10 11 13 13
55 52 56 41 38 27 22 23 23 37 33 32 32 33 33 33 34 35 38 41 47 45 38 35 31 33 32 29 27 26 24 20 20 20 22 21 20 21 19 19 16 22 25 23 21 19 17 14 12 12 12 13 13 13
44 47 47 33 22 11 20 25 31 30 28 32 30 28 29 31 33 33 35 39 40 38 35 32 31 29 27 25 26 27 25 24 24 23 19 17 19 17 16 19 22 26 25 23 20 17 14 12 13 12 14 14 13 13
34 27 22 13 11 8 27 24 25 24 22 30 29 28 26 26 27 29 31 31 27 26 27 27 27 26 26 28 28 28 27 24 23 21 19 19 16 17 24 27 28 27 25 21 17 14 13 13 13 14 14 13 13 13
22 15 9 12 12 16 24 27 26 24 20 25 25 27 23 23 26 28 30 32 28 27 29 30 28 27 27 26 23 24 24 25 22 21 20 20 24 30 30 30 26 22 17 12 11 11 13 13 13 14 14 14 14 13
12 7 11 15 20 19 16 24 24 27 26 24 21 20 21 21 20 15 22 24 24 20 19 16 17 18 19 20 19 20 19 18 19 21 24 28 26 20 17 14 14 12 11 11 12 12 13 13 13 13 14 14 14 14
9 5 13 14 16 15 18 18 19 19 20 16 20 21 18 12 11 14 18 19 14 16 16 16 16 19 19 20 18 18 19 21 26 29 27 25 25 25 21 17 14 13 12 12 12 12 12 12 12 13 13 14 14 14
8 8 9 14 16 18 18 19 19 19 19 19 18 17 8 10 11 9 13 17 15 17 18 20 18 15 15 17 20 23 28 30 30 28 26 22 19 16 13 11 10 12 12 12 11 11 11 12 12 13 13 13 13 15
5 8 12 14 15 16 15 16 18 20 20 22 21 22 18 15 10 11 14 14 17 17 18 19 21 24 25 25 25 25 22 19 15 14 15 15 14 13 14 14 13 11 11 11 11 11 12 12 12 13 13 13 14 16
7 10 16 17 19 16 19 17 20 17 19 20 21 21 19 13 11 12 20 20 19 22 23 23 22 22 22 22 23 23 22 22 22 19 15 13 14 14 14 13 12 12 12 12 13 14 13 13 13 14 14 14 15 16
10 14 16 18 17 13 15 17 17 17 19 22 19 15 16 13 15 25 25 24 26 27 25 22 22 21 20 19 19 16 15 13 12 12 11 11 10 11 12 13 14 15 14 14 15 15 15 15 15 15 15 16 16 16
12 14 15 15 13 13 15 11 14 17 18 19 18 15 14 14 21 27 29 28 28 27 26 25 23 21 20 19 18 17 16 15 14 13 12 12 12 12 13 14 15 15 15 15 16 16 16 16 16 16 16 17 16 16
12 10 11 15 16 15 15 18 19 19 19 19 18 16 15 15 20 26 28 29 29 29 28 26 24 22 19 17 15 14 14 14 13 14 14 14 15 15 15 15 15 15 16 17 17 17 16 16 15 16 17 16 16 17
Wind_Direction
219 216 215 211 213 215 220 220 219 214 210 208 208 209 210 210 212 214 214 218 222 228 229 220 212 206 210 210 216 222 219 217 218 229 234 228 231 229 233 230 230 230 206 213 223 237 258 262 264 293 301 306 308 310
217 213 215 215 215 215 215 216 212 210 209 209 209 209 211 211 211 213 211 213 215 230 230 235 219 209 208 211 214 216 219 227 228 225 231 234 226 221 226 234 235 231 222 232 227 228 241 264 297 296 304 300 300 307
217 215 215 215 216 216 215 214 211 209 209 208 209 209 210 212 211 211 209 211 208 226 230 234 232 215 210 209 203 214 216 221 226 232 234 231 231 233 230 241 242 240 236 244 251 255 256 270 284 295 300 298 296 311
217 216 216 216 216 215 214 214 212 211 209 210 209 210 210 210 209 208 208 209 211 220 226 231 228 221 220 219 216 216 227 227 233 233 231 237 239 251 244 242 240 235 241 248 250 263 277 289 288 292 300 305 307 310
214 213 214 214 213 214 214 213 212 211 211 210 209 209 209 209 207 207 209 211 213 208 231 231 230 233 225 224 218 217 223 230 228 235 245 251 256 260 265 255 238 228 214 239 265 295 285 296 295 294 301 301 305 301
211 212 212 213 212 210 209 210 211 210 209 209 209 209 207 204 197 201 207 211 210 211 221 226 242 226 220 217 222 223 224 230 236 239 244 251 251 252 256 260 260 254 257 264 276 285 291 291 297 302 301 302 298 291
211 212 213 212 210 209 207 206 207 208 208 206 204 205 204 199 196 201 207 209 208 210 219 233 251 244 223 224 226 221 220 230 235 241 247 251 255 257 261 261 257 253 277 280 283 276 280 294 303 306 306 303 293 279
215 213 211 207 204 205 203 202 202 203 201 199 198 197 200 195 199 205 212 214 209 211 216 220 214 196 214 218 216 223 224 226 233 242 248 251 257 255 259 263 270 273 275 268 271 267 267 293 305 308 304 294 276 260
213 209 204 198 201 201 197 197 197 197 195 193 194 190 188 195 200 204 210 215 219 212 208 208 222 215 213 210 209 215 218 231 236 243 247 251 252 249 257 265 264 282 271 272 260 259 272 291 300 298 293 286 255 259
202 199 197 197 198 196 192 191 193 185 184 182 179 182 190 198 200 200 202 208 217 227 224 221 215 212 195 197 197 208 217 223 241 247 249 250 255 261 262 272 281 272 268 266 270 273 279 287 287 283 287 254 253 259
197 194 192 190 191 191 189 188 185 180 178 177 185 185 194 195 193 199 196 203 209 211 211 215 223 217 200 199 200 205 221 223 243 252 244 255 261 269 288 282 269 265 263 262 264 263 268 274 271 275 273 248 248 258
193 190 188 185 187 188 187 186 185 178 182 182 184 188 178 185 183 194 198 202 213 187 205 209 216 213 210 206 209 210 212 220 236 240 239 256 268 293 292 301 264 242 242 247 253 256 253 254 259 260 257 239 244 263
190 186 187 185 183 183 183 183 183 185 181 184 183 162 179 184 183 195 192 191 206 184 185 194 199 206 203 202 204 205 214 225 239 241 247 257 270 280 293 277 277 277 235 227 234 245 257 253 249 252 234 235 247 271
183 182 180 180 180 182 181 182 184 190 182 178 172 175 181 187 197 201 202 197 195 203 204 197 199 186 193 195 195 210 217 217 226 240 254 278 297 289 271 266 259 255 230 239 265 260 252 241 243 227 229 238 257 268
174 177 177 180 179 178 180 184 193 192 187 175 177 195 195 198 199 197 199 201 202 204 202 192 189 184 186 184 191 196 205 218 237 247 269 291 299 283 260 259 255 251 250 251 251 246 237 235 220 220 230 242 256 269
174 167 174 179 177 173 184 180 179 186 174 177 195 186 193 200 195 200 202 206 197 195 190 182 173 180 189 201 206 212 222 232 244 259 277 283 276 274 245 307 305 270 253 246 233 223 223 214 211 223 232 245 255 272
167 173 171 170 168 172 172 173 179 176 186 190 199 200 195 196 211 199 193 195 196 193 189 182 184 189 194 208 212 216 233 263 268 262 273 275 272 280 276 286 287 263 264 242 218 212 212 206 214 224 237 243 257 280
165 165 166 168 168 172 180 176 170 174 189 190 194 176 197 203 185 187 190 195 195 198 201 193 200 201 202 210 222 242 254 272 267 259 260 268 264 279 274 259 261 265 255 220 206 206 202 206 214 229 235 244 264 281
158 162 166 171 174 171 166 175 188 183 170 175 185 187 181 190 190 194 190 191 194 199 196 196 199 210 214 231 241 254 251 267 258 267 274 268 268 282 271 243 255 257 248 209 204 197 199 207 220 226 232 250 268 276
161 166 169 168 167 162 163 155 173 184 168 165 170 181 173 175 188 193 190 191 195 196 191 205 210 219 230 239 243 252 257 261 265 268 276 275 264 273 264 247 252 253 223 199 192 197 205 215 221 227 239 256 266 272
151 159 161 165 158 159 160 140 142 165 156 160 167 175 179 183 186 188 192 197 199 204 203 212 217 223 225 238 248 243 249 258 252 264 289 286 270 251 258 281 246 241 207 194 196 202 209 212 220 232 246 257 262 270
158 160 159 155 152 141 153 158 152 163 169 169 169 174 179 184 188 191 197 203 211 214 220 224 228 232 238 241 245 251 261 264 270 272 284 277 283 295 265 251 231 206 188 189 198 206 212 218 230 241 250 254 261 272
138 153 165 159 145 138 150 145 153 162 168 171 171 172 180 186 193 198 203 209 213 216 221 227 233 239 245 250 254 255 258 266 269 278 273 268 278 271 242 204 195 188 190 197 204 208 214 225 238 246 251 255 264 273
152 139 141 143 158 144 160 164 170 173 172 180 188 192 197 198 204 205 212 222 228 230 229 233 236 247 254 256 258 260 265 264 260 254 271 265 240 221 187 176 182 186 191 197 204 213 226 236 243 249 254 259 267 277
158 159 166 179 171 164 174 177 177 177 178 187 194 199 204 206 213 220 230 241 247 249 248 250 250 253 261 262 259 254 248 245 243 249 241 210 188 181 175 179 186 193 195 200 209 223 236 242 247 252 258 264 272 282
166 157 180 186 190 185 180 183 189 197 204 204 205 210 215 218 226 238 252 257 269 260 247 241 244 250 248 233 238 240 235 231 224 208 184 177 170 172 181 185 186 185 193 212 229 236 240 246 252 258 264 271 278 287
178 161 180 187 186 190 192 202 207 206 210 215 226 225 225 221 228 235 249 250 249 235 227 224 216 212 224 239 231 213 195 181 176 173 174 175 172 172 175 181 186 198 210 221 229 237 244 251 257 265 271 276 283 290
176 178 183 192 196 204 209 210 211 215 221 226 234 227 220 208 219 240 219 221 222 211 207 197 203 216 195 172 167 167 168 172 175 173 174 178 181 183 183 185 193 207 218 228 237 244 249 257 266 272 276 282 288 291
202 223 218 214 213 208 206 209 207 213 219 221 222 217 208 212 213 236 222 205 177 182 186 186 178 167 157 158 161 163 167 172 176 178 178 179 183 187 195 204 214 221 231 240 247 252 259 268 276 280 285 290 292 294
233 204 191 193 192 198 206 209 211 211 217 210 205 204 206 207 228 210 179 175 172 165 163 168 170 166 163 165 167 168 169 173 176 174 178 186 195 205 215 225 231 236 243 251 258 263 267 274 279 283 289 293 294 296
185 179 186 189 193 194 190 187 191 198 197 194 193 187 209 218 198 175 171 171 169 167 166 169 171 173 170 171 172 178 183 183 184 190 193 197 207 219 227 233 237 241 248 256 265 269 272 275 278 282 289 294 296 297
181 184 187 185 177 172 171 172 178 177 175 182 189 194 197 196 183 178 176 174 175 172 172 176 179 182 180 178 182 185 186 190 198 205 209 215 221 228 235 239 243 249 257 264 267 270 272 273 275 280 288 295 297 297
178 177 181 186 169 165 168 161 156 156 168 174 178 181 184 178 176 178 180 180 181 181 181 182 183 187 192 197 200 201 204 209 212 214 219 225 231 236 240 246 252 259 264 268 270 271 270 270 273 281 290 293 296 298
Height
2859 2868 2877 2886 2896 2905 2915 2925 2934 2943 2953 2962 2970 2977 2985 2991 2998 3003 3012 3017 3024 3028 3034 3040 3046 3052 3057 3061 3065 3070 3076 3076 3080 3082 3083 3082 3085 3087 3089 3089 3087 3088 3091 3093 3094 3094 3089 3083 3085 3086 3083 3077 3073 3069
2848 2857 2867 2876 2886 2896 2905 2914 2925 2935 2944 2954 2963 2971 2978 2985 2992 2999 3006 3013 3020 3025 3029 3035 3040 3045 3051 3055 3061 3064 3067 3070 3073 3075 3076 3078 3080 3080 3082 3082 3082 3085 3083 3085 3086 3082 3078 3078 3078 3077 3075 3072 3066 3063
2837 2847 2857 2866 2876 2885 2896 2906 2916 2926 2937 2946 2955 2963 2972 2979 2987 2992 3001 3008 3015 3018 3025 3030 3033 3039 3045 3050 3055 3059 3062 3064 3067 3069 3070 3072 3074 3073 3074 3075 3077 3076 3076 3076 3077 3075 3074 3075 3073 3070 3066 3063 3060 3056
2828 2836 2846 2855 2865 2875 2886 2896 2906 2917 2927 2938 2947 2956 2964 2972 2981 2987 2994 3003 3008 3014 3019 3022 3027 3032 3038 3043 3049 3053 3056 3059 3062 3064 3064 3065 3067 3066 3067 3068 3068 3071 3070 3069 3065 3068 3070 3069 3065 3062 3058 3055 3052 3048
2818 2826 2835 2845 2855 2865 2876 2887 2897 2908 2919 2929 2939 2948 2957 2966 2975 2983 2991 2997 3002 3014 3012 3015 3023 3026 3032 3038 3042 3046 3051 3053 3056 3057 3057 3058 3059 3061 3059 3058 3055 3060 3062 3062 3059 3064 3061 3060 3057 3054 3051 3048 3045 3042
2809 2817 2826 2835 2845 2855 2866 2877 2888 2900 2910 2921 2931 2941 2950 2959 2971 2977 2983 2990 2995 3002 3009 3012 3015 3020 3026 3031 3036 3040 3044 3047 3049 3049 3051 3051 3052 3056 3050 3044 3049 3051 3057 3056 3054 3055 3054 3052 3050 3047 3044 3041 3038 3036
2801 2809 2817 2826 2836 2846 2857 2868 2879 2891 2903 2914 2925 2936 2945 2955 2962 2967 2971 2978 2988 2997 3004 3008 3009 3014 3020 3025 3029 3033 3038 3040 3042 3042 3042 3044 3045 3046 3035 3029 3043 3043 3047 3047 3047 3046 3046 3045 3042 3040 3036 3034 3032 3031
2792 2800 2809 2817 2827 2838 2849 2860 2871 2883 2895 2908 2920 2932 2943 2954 2962 2965 2971 2976 2986 2993 2998 3003 3002 3006 3011 3016 3021 3027 3030 3034 3033 3034 3034 3035 3037 3034 3017 3023 3026 3036 3037 3037 3038 3038 3037 3036 3035 3032 3030 3028 3026 3025
2781 2791 2801 2810 2821 2831 2843 2854 2865 2877 2890 2904 2918 2931 2941 2945 2951 2958 2967 2975 2982 2989 2989 2989 2995 2998 3005 3009 3015 3020 3023 3025 3026 3023 3025 3030 3022 3009 3009 3017 3019 3028 3026 3029 3029 3029 3028 3027 3027 3025 3023 3021 3021 3020
2772 2783 2794 2804 2814 2825 2837 2849 2858 2872 2887 2902 2914 2922 2927 2933 2946 2956 2965 2970 2974 2974 2979 2984 2989 2994 3000 3005 3010 3017 3017 3018 3015 3014 3018 3009 2995 3001 3005 3009 3013 3013 3015 3018 3019 3019 3018 3018 3017 3016 3015 3015 3015 3015
2766 2777 2788 2798 2809 2820 2833 2845 2856 2869 2882 2891 2899 2911 2920 2930 2941 2948 2955 2959 2962 2962 2964 2974 2981 2988 2995 3000 3004 3009 3010 3010 3008 3007 3007 2995 2984 2988 3001 2998 2999 3001 3003 3003 3005 3007 3007 3008 3009 3009 3009 3010 3010 3010
2761 2772 2783 2794 2805 2816 2828 2840 2851 2861 2872 2881 2894 2904 2911 2924 2930 2935 2941 2945 2944 2947 2953 2961 2971 2980 2989 2995 3000 3002 3004 3005 3001 2998 2996 2982 2982 2990 2990 2989 2987 2987 2990 2993 2995 2996 2997 2999 3001 3002 3003 3004 3004 3004
2757 2767 2780 2791 2801 2812 2824 2836 2848 2858 2869 2882 2893 2895 2899 2909 2910 2919 2920 2928 2934 2940 2943 2949 2961 2971 2982 2989 2991 2997 2995 2995 2993 2989 2980 2974 2981 2985 2985 2984 2983 2981 2982 2985 2987 2989 2991 2992 2993 2995 2997 2998 2999 2998
2754 2765 2777 2790 2800 2810 2822 2833 2844 2852 2865 2870 2877 2881 2891 2898 2899 2903 2909 2919 2927 2936 2945 2950 2957 2964 2972 2979 2984 2985 2985 2986 2983 2977 2970 2973 2975 2976 2974 2975 2977 2978 2979 2981 2982 2983 2984 2985 2987 2989 2992 2994 2992 2993
2752 2765 2777 2789 2799 2810 2821 2830 2840 2853 2861 2867 2874 2878 2882 2884 2894 2902 2912 2915 2924 2931 2937 2946 2955 2957 2963 2969 2971 2975 2976 2972 2968 2966 2968 2970 2968 2967 2966 2968 2969 2970 2972 2973 2974 2975 2977 2980 2982 2985 2988 2987 2988 2987
2751 2766 2777 2788 2800 2810 2816 2829 2838 2849 2856 2865 2869 2870 2876 2887 2893 2901 2907 2913 2923 2930 2937 2943 2948 2954 2958 2963 2963 2964 2963 2959 2959 2960 2966 2964 2963 2963 2963 2964 2964 2963 2964 2965 2966 2969 2972 2974 2978 2981 2982 2983 2982 2981
2754 2763 2776 2789 2800 2811 2822 2826 2838 2849 2857 2859 2865 2871 2878 2885 2892 2898 2904 2911 2918 2924 2928 2935 2942 2945 2949 2951 2952 2951 2951 2949 2953 2957 2959 2960 2959 2958 2958 2958 2958 2958 2958 2959 2960 2963 2966 2969 2974 2976 2978 2977 2977 2976
2756 2768 2779 2790 2800 2811 2819 2831 2838 2844 2849 2859 2867 2871 2877 2884 2890 2894 2899 2906 2912 2918 2923 2927 2932 2934 2937 2938 2939 2941 2945 2948 2949 2950 2952 2953 2953 2952 2951 2951 2952 2953 2952 2952 2955 2959 2963 2967 2970 2972 2972 2972 2972 2972
2765 2774 2784 2792 2800 2811 2822 2834 2839 2845 2846 2853 2865 2871 2876 2880 2886 2891 2896 2902 2907 2910 2916 2920 2923 2924 2927 2929 2934 2938 2942 2943 2944 2944 2945 2945 2946 2945 2945 2945 2946 2947 2946 2949 2952 2957 2960 2963 2966 2967 2967 2967 2967 2968
2772 2778 2787 2797 2809 2819 2825 2831 2837 2847 2848 2852 2861 2869 2873 2877 2882 2887 2891 2895 2900 2905 2909 2911 2914 2918 2922 2927 2931 2934 2935 2936 2937 2938 2938 2938 2938 2939 2938 2940 2940 2940 2942 2945 2949 2952 2956 2960 2961 2962 2962 2962 2963 2964
2776 2784 2793 2803 2812 2819 2825 2829 2835 2847 2851 2855 2860 2866 2870 2875 2879 2884 2889 2894 2898 2900 2904 2908 2911 2915 2919 2922 2925 2927 2928 2930 2930 2931 2932 2931 2931 2931 2931 2932 2933 2936 2939 2943 2947 2951 2954 2955 2956 2957 2958 2959 2960 2960
2785 2793 2802 2809 2815 2821 2827 2831 2836 2843 2851 2855 2860 2864 2869 2873 2878 2882 2887 2891 2893 2896 2900 2904 2907 2910 2913 2916 2918 2920 2921 2922 2923 2925 2925 2925 2924 2924 2923 2926 2929 2933 2937 2941 2946 2948 2949 2951 2952 2953 2954 2955 2955 2955
2795 2801 2809 2813 2820 2826 2832 2835 2839 2843 2849 2854 2859 2863 2868 2871 2876 2880 2882 2884 2886 2891 2895 2898 2901 2904 2907 2909 2910 2911 2913 2914 2916 2917 2916 2916 2917 2917 2918 2921 2926 2931 2935 2939 2941 2943 2945 2947 2948 2949 2950 2951 2950 2950
2802 2807 2812 2816 2820 2823 2829 2833 2837 2842 2846 2851 2856 2860 2864 2868 2872 2874 2875 2878 2883 2885 2888 2891 2893 2896 2898 2899 2900 2902 2904 2905 2906 2908 2909 2910 2910 2913 2915 2920 2925 2929 2932 2934 2938 2940 2942 2943 2944 2945 2946 2946 2946 2945
2809 2814 2816 2817 2820 2824 2827 2831 2836 2839 2842 2846 2851 2855 2858 2862 2865 2866 2867 2870 2874 2877 2880 2882 2884 2887 2888 2888 2890 2892 2893 2896 2898 2900 2902 2903 2906 2910 2914 2918 2923 2927 2930 2933 2935 2937 2939 2940 2940 2941 2941 2941 2940 2939
2808 2811 2814 2814 2819 2824 2826 2829 2832 2836 2841 2844 2847 2850 2853 2855 2857 2857 2857 2860 2863 2866 2868 2871 2873 2874 2876 2880 2882 2884 2886 2888 2891 2894 2899 2904 2908 2914 2918 2921 2923 2926 2928 2930 2932 2934 2935 2936 2937 2937 2937 2936 2935 2934
2807 2808 2809 2812 2815 2818 2822 2825 2828 2832 2834 2837 2839 2843 2847 2849 2848 2848 2850 2852 2855 2858 2860 2862 2864 2868 2871 2873 2873 2876 2879 2884 2890 2896 2900 2903 2907 2911 2915 2919 2921 2923 2926 2928 2930 2931 2932 2932 2932 2932 2932 2931 2930 2929
2806 2808 2810 2812 2814 2816 2818 2821 2824 2827 2829 2831 2835 2837 2840 2840 2842 2845 2846 2849 2851 2853 2855 2858 2862 2864 2866 2868 2872 2877 2882 2887 2891 2895 2899 2904 2907 2911 2914 2916 2919 2922 2924 2925 2927 2927 2928 2928 2927 2927 2927 2926 2925 2924
2805 2807 2809 2809 2812 2814 2815 2817 2819 2821 2824 2827 2830 2833 2836 2838 2840 2841 2843 2845 2849 2852 2855 2859 2862 2865 2868 2872 2876 2881 2886 2892 2895 2898 2901 2904 2907 2910 2912 2915 2917 2919 2921 2922 2923 2924 2924 2923 2923 2923 2922 2920 2920 2919
2802 2803 2804 2806 2809 2812 2814 2817 2819 2820 2823 2825 2828 2830 2834 2836 2838 2840 2842 2846 2849 2852 2856 2861 2865 2868 2872 2876 2879 2883 2886 2890 2892 2896 2899 2903 2905 2908 2910 2912 2914 2916 2917 2918 2919 2919 2919 2919 2918 2918 2917 2916 2915 2914
2800 2802 2804 2806 2809 2811 2813 2815 2817 2819 2821 2824 2827 2830 2834 2835 2836 2838 2842 2845 2849 2853 2857 2862 2866 2870 2874 2877 2881 2885 2888 2890 2893 2896 2899 2901 2903 2905 2907 2909 2911 2912 2913 2914 2914 2914 2914 2913 2913 2912 2911 2910 2909 2908
2800 2802 2804 2806 2808 2810 2812 2814 2816 2818 2821 2825 2827 2830 2832 2834 2835 2838 2841 2845 2849 2853 2858 2862 2867 2871 2873 2876 2879 2883 2886 2889 2892 2894 2896 2899 2901 2903 2904 2906 2907 2908 2908 2909 2909 2909 2908 2908 2907 2907 2906 2905 2904 2903
2801 2802 2804 2806 2808 2810 2812 2814 2817 2820 2823 2825 2828 2830 2832 2833 2834 2838 2841 2845 2850 2853 2857 2860 2864 2867 2871 2875 2879 2882 2885 2888 2890 2892 2894 2895 2897 2899 2900 2901 2902 2903 2903 2903 2903 2903 2902 2902 2901 2901 2900 2900 2899 2898